COSMOS 2394 (GLONASS)

Satellite information

Favourite Embed

Satellite Type and Status

PAYLOADIN ORBIT

Key statistics

Satellite COSMOS 2394 (GLONASS) at a glance.

Uptime

8175

Days in orbit

Revolutions

≈ 2.1

Per day

Orbit

MEO

Medium Earth Orbit

Inclination

65.6

Latest

Satellite identification and parameters

Extended collection of information and parameters for COSMOS 2394 (GLONASS).

Object identification

Identified? True

Debris? False

Object name: COSMOS 2394 (GLONASS)

International designator: 2002-060A

Object number (NORAD): 27617

Object ID (CCSDS): 27617

Country: COMMONWEALTH OF INDEPENDENT STATES (CIS)

Current information (Y/N): Y

RCS size: LARGE

Orbital parameters

Period: 675.731 minutes

Inclination: 65.6462 deg

SMA: 25507.975 km

Apoapsis: 19136.302 km

Periapsis: 19123.379 km

RAAN: 329.2038 deg

Eccentricy: 0.0002533

Argument of periapsis: 10.6405 deg

Mean anomaly: 349.3946 deg

Mean motion: 2.13102615 rev/day

Mean motion (dot): -0.00000046 rev/day2

B* drag term: 0.0 1/REarth

Two-line elements (TLE)

Creation date: May 12, 2025, 7:41 p.m.

Reference frame: TEME

Reference center: EARTH

Epoch: May 11, 2025, 9:45 p.m. UTC

TLE line 0: 0 COSMOS 2394 (GLONASS)

TLE line 1: 1 27617U 02060A 25131.90655415 -.00000046 00000-0 00000-0 0 9999

TLE line 2: 2 27617 65.6462 329.2038 0002533 10.6405 349.3946 2.13102615174179

Live tracking on map

Real-time ground track for satellite COSMOS 2394 (GLONASS).

In-orbit conjunctions

A list of the most updated potential collisions computed for object COSMOS 2394 (GLONASS).

Target Orbit TCA Probability of collision Miss distance Type
SL-12 R/B(2) MEO 2024-08-11 00:27:44 TBA 3685.0 (m) ROCKET BODY

Associated space launch

GLONASS navigation satellites

COSMOS 2394 (GLONASS) was lifted into orbit during the mission ‘Proton-K/DM-2M | Uragan 80 to 82’, on board a Proton-K/DM-2M space rocket.

The launch took place on Dec. 25, 2002, 7:37 a.m. from 81/23 (81L).

For more information about the launch, click the button.

Launch to space Proton-K/DM-2M | Uragan 80 to 82
Proton-K/DM-2M | Uragan 80 to 82

Agency: N/A

Status: Launch Successful

Launch date: Dec. 25, 2002, 7:37 a.m. UTC

Rocket: Proton-K/DM-2M

Launch pad: 81/23 (81L)

Location: Baikonur Cosmodrome, Republic of Kazakhstan

...

Latest news about this satellite

There are no fresh news available about this satellite. Check back as we update our databases every day.


Newsletter sign-up

Weekly statistics, charts and insights to help you stay on top of the space industry.